When you browse on this site, cookies collect data to enhance your experience and personalize the content and advertising you see.
Visit our Privacy Policy to learn more. By continuing to use the site, you agree to this use of cookies and data.
  • In Austria
  • List of Countries
  • For 7 days
  • Water Temperature
  • Satellite Maps
  • Weather Map
  • News
  • Weather Widgets
  • user-avatar
    Login

    Hourly Weather Ghazni

    Today, 21 April, Sunday

    Time Temperature Precipitation Wind Pressure Humidity
    00:00 +16°C° 0 mm 3 mps 587 mmHg 38%
    01:00 +15°C° 0 mm 2 mps 586 mmHg 41%
    02:00 +15°C° 0 mm 2 mps 586 mmHg 43%
    03:00 +14°C° 0 mm 2 mps 586 mmHg 45%
    04:00 +14°C° 0 mm 2 mps 585 mmHg 48%
    05:00 +13°C° 0 mm 2 mps 585 mmHg 48%
    06:00 +14°C° 0 mm 2 mps 586 mmHg 46%
    07:00 +15°C° 0 mm 1 mps 586 mmHg 43%
    08:00 +14°C° 0 mm 0 mps 587 mmHg 40%
    09:00 +18°C° 0 mm 1 mps 587 mmHg 36%
    10:00 +18°C° 0 mm 2 mps 588 mmHg 32%
    11:00 +20°C° 0 mm 2 mps 588 mmHg 28%
    12:00 +21°C° 0 mm 3 mps 588 mmHg 25%
    13:00 +22°C° 0 mm 3 mps 588 mmHg 22%
    14:00 +23°C° 0 mm 4 mps 589 mmHg 19%
    15:00 +23°C° 0 mm 4 mps 588 mmHg 18%
    16:00 +23°C° 0 mm 5 mps 588 mmHg 17%
    17:00 +23°C° 0 mm 5 mps 588 mmHg 16%
    18:00 +22°C° 0 mm 5 mps 588 mmHg 19%
    19:00 +21°C° 0 mm 5 mps 588 mmHg 22%
    20:00 +20°C° 0 mm 5 mps 587 mmHg 24%
    21:00 +19°C° 0 mm 4 mps 587 mmHg 27%
    22:00 +18°C° 0 mm 4 mps 587 mmHg 29%
    23:00 +17°C° 0 mm 3 mps 587 mmHg 32%

    Tomorrow, 22 April, Monday

    Time Temperature Precipitation Wind Pressure Humidity
    00:00 +17°C° 0 mm 2 mps 587 mmHg 34%
    01:00 +16°C° 0 mm 2 mps 586 mmHg 36%
    02:00 +15°C° 0 mm 1 mps 586 mmHg 38%
    03:00 +15°C° 0 mm 1 mps 586 mmHg 40%
    04:00 +14°C° 0 mm 1 mps 586 mmHg 41%
    05:00 +14°C° 0 mm 1 mps 585 mmHg 43%
    06:00 +15°C° 0 mm 1 mps 586 mmHg 40%
    07:00 +16°C° 0 mm 1 mps 587 mmHg 38%
    08:00 +16°C° 0 mm 1 mps 588 mmHg 35%
    09:00 +19°C° 0 mm 1 mps 588 mmHg 31%
    10:00 +20°C° 0 mm 1 mps 589 mmHg 26%
    11:00 +21°C° 0 mm 1 mps 589 mmHg 21%
    12:00 +23°C° 0 mm 2 mps 590 mmHg 18%
    13:00 +24°C° 0 mm 2 mps 590 mmHg 15%
    14:00 +25°C° 0 mm 3 mps 590 mmHg 11%
    15:00 +25°C° 0 mm 4 mps 590 mmHg 11%
    16:00 +25°C° 0 mm 5 mps 590 mmHg 11%
    17:00 +26°C° 0 mm 5 mps 590 mmHg 11%
    18:00 +23°C° 0 mm 5 mps 590 mmHg 15%
    19:00 +22°C° 0 mm 5 mps 589 mmHg 18%
    20:00 +21°C° 0 mm 5 mps 589 mmHg 22%
    21:00 +20°C° 0 mm 4 mps 589 mmHg 25%
    22:00 +19°C° 0 mm 3 mps 589 mmHg 28%
    23:00 +18°C° 0 mm 3 mps 589 mmHg 31%

    Day after tomorrow, 23 April, Tuesday

    Time Temperature Precipitation Wind Pressure Humidity
    00:00 +18°C° 0 mm 2 mps 589 mmHg 32%
    01:00 +18°C° 0 mm 2 mps 589 mmHg 34%
    02:00 +18°C° 0 mm 1 mps 588 mmHg 35%
    03:00 +18°C° 0 mm 1 mps 588 mmHg 36%
    04:00 +18°C° 0 mm 1 mps 588 mmHg 36%
    05:00 +16°C° 0 mm 2 mps 588 mmHg 37%
    06:00 +18°C° 0 mm 1 mps 588 mmHg 35%
    07:00 +18°C° 0 mm 1 mps 589 mmHg 33%
    08:00 +19°C° 0 mm 1 mps 589 mmHg 31%
    09:00 +19°C° 0 mm 3 mps 590 mmHg 30%
    10:00 +20°C° 0 mm 4 mps 590 mmHg 29%
    11:00 +21°C° 0 mm 5 mps 591 mmHg 28%
    12:00 +22°C° 0 mm 6 mps 591 mmHg 27%
    13:00 +23°C° 0 mm 7 mps 590 mmHg 26%
    14:00 +23°C° 0 mm 8 mps 590 mmHg 26%
    15:00 +23°C° 0 mm 8 mps 590 mmHg 25%
    16:00 +23°C° 0 mm 8 mps 590 mmHg 25%
    17:00 +23°C° 0 mm 8 mps 590 mmHg 25%
    18:00 +22°C° 0 mm 7 mps 589 mmHg 28%
    19:00 +21°C° 0 mm 6 mps 589 mmHg 31%
    20:00 +20°C° 0 mm 4 mps 589 mmHg 33%
    21:00 +19°C° 0.2 mm 4 mps 589 mmHg 38%
    22:00 +19°C° 0.2 mm 4 mps 589 mmHg 42%
    23:00 +18°C° 0.2 mm 3 mps 589 mmHg 47%

    24 April, Wednesday

    Time Temperature Precipitation Wind Pressure Humidity
    00:00 +18°C° 0.3 mm 4 mps 588 mmHg 49%
    01:00 +17°C° 0.3 mm 4 mps 588 mmHg 52%
    02:00 +16°C° 0.3 mm 5 mps 588 mmHg 54%
    03:00 +15°C° 0.3 mm 4 mps 587 mmHg 57%
    04:00 +15°C° 0.3 mm 4 mps 587 mmHg 60%
    05:00 +14°C° 0.3 mm 4 mps 587 mmHg 62%
    06:00 +14°C° 0.1 mm 4 mps 587 mmHg 60%
    07:00 +15°C° 0.1 mm 4 mps 587 mmHg 58%
    08:00 +15°C° 0.1 mm 4 mps 588 mmHg 56%
    09:00 +15°C° 0.7 mm 5 mps 587 mmHg 60%
    10:00 +14°C° 0.7 mm 6 mps 587 mmHg 63%
    11:00 +14°C° 0.7 mm 7 mps 587 mmHg 66%
    12:00 +16°C° 0.1 mm 8 mps 587 mmHg 57%
    13:00 +17°C° 0.1 mm 8 mps 587 mmHg 48%
    14:00 +19°C° 0.1 mm 9 mps 587 mmHg 40%
    15:00 +19°C° 0 mm 10 mps 587 mmHg 35%
    16:00 +21°C° 0 mm 11 mps 587 mmHg 31%
    17:00 +21°C° 0 mm 12 mps 587 mmHg 27%
    18:00 +19°C° 0 mm 11 mps 586 mmHg 28%
    19:00 +17°C° 0 mm 10 mps 586 mmHg 28%
    20:00 +16°C° 0 mm 9 mps 586 mmHg 29%
    21:00 +15°C° 0 mm 7 mps 586 mmHg 33%
    22:00 +14°C° 0 mm 6 mps 586 mmHg 37%
    23:00 +13°C° 0 mm 4 mps 585 mmHg 42%

    25 April, Thursday

    Time Temperature Precipitation Wind Pressure Humidity
    00:00 +12°C° 0 mm 4 mps 585 mmHg 46%
    01:00 +11°C° 0 mm 4 mps 585 mmHg 50%
    02:00 +11°C° 0 mm 4 mps 584 mmHg 54%
    03:00 +10°C° 0 mm 3 mps 584 mmHg 57%
    04:00 +10°C° 0 mm 3 mps 584 mmHg 59%
    05:00 +9°C° 0 mm 2 mps 584 mmHg 61%
    06:00 +10°C° 0 mm 3 mps 585 mmHg 57%
    07:00 +10°C° 0 mm 3 mps 585 mmHg 53%
    08:00 +11°C° 0 mm 3 mps 586 mmHg 48%
    09:00 +12°C° 0 mm 4 mps 587 mmHg 41%
    10:00 +14°C° 0 mm 5 mps 587 mmHg 34%
    11:00 +15°C° 0 mm 6 mps 588 mmHg 27%
    12:00 +16°C° 0 mm 7 mps 588 mmHg 25%
    13:00 +17°C° 0 mm 8 mps 588 mmHg 23%
    14:00 +18°C° 0 mm 10 mps 588 mmHg 21%
    15:00 +18°C° 0 mm 10 mps 587 mmHg 21%
    16:00 +17°C° 0 mm 10 mps 587 mmHg 21%
    17:00 +17°C° 0 mm 10 mps 587 mmHg 21%
    18:00 +16°C° 0 mm 9 mps 587 mmHg 23%
    19:00 +15°C° 0 mm 7 mps 587 mmHg 26%
    20:00 +14°C° 0 mm 6 mps 587 mmHg 29%
    21:00 +13°C° 0 mm 5 mps 587 mmHg 32%
    22:00 +12°C° 0 mm 4 mps 587 mmHg 34%
    23:00 +12°C° 0 mm 3 mps 587 mmHg 37%

    26 April, Friday

    Time Temperature Precipitation Wind Pressure Humidity
    00:00 +11°C° 0 mm 3 mps 586 mmHg 39%
    01:00 +10°C° 0 mm 2 mps 586 mmHg 41%
    02:00 +10°C° 0 mm 2 mps 585 mmHg 43%
    03:00 +10°C° 0 mm 1 mps 585 mmHg 45%
    04:00 +10°C° 0 mm 1 mps 585 mmHg 47%
    05:00 +9°C° 0 mm 1 mps 584 mmHg 49%
    06:00 +10°C° 0 mm 1 mps 585 mmHg 44%
    07:00 +11°C° 0 mm 1 mps 586 mmHg 40%
    08:00 +12°C° 0 mm 1 mps 586 mmHg 36%
    09:00 +13°C° 0 mm 2 mps 587 mmHg 32%
    10:00 +14°C° 0 mm 3 mps 588 mmHg 28%
    11:00 +15°C° 0 mm 4 mps 588 mmHg 24%
    12:00 +16°C° 0 mm 5 mps 588 mmHg 23%
    13:00 +17°C° 0 mm 7 mps 588 mmHg 21%
    14:00 +18°C° 0 mm 8 mps 588 mmHg 19%
    15:00 +18°C° 0 mm 9 mps 588 mmHg 19%
    16:00 +18°C° 0 mm 9 mps 587 mmHg 20%
    17:00 +18°C° 0 mm 10 mps 587 mmHg 20%
    18:00 +17°C° 0 mm 8 mps 587 mmHg 22%
    19:00 +16°C° 0 mm 7 mps 587 mmHg 25%
    20:00 +15°C° 0 mm 6 mps 587 mmHg 28%
    21:00 +14°C° 0 mm 5 mps 587 mmHg 30%
    22:00 +13°C° 0 mm 4 mps 587 mmHg 33%
    23:00 +12°C° 0 mm 3 mps 587 mmHg 35%
    Show more